map of ARH home
Great Circle Mapper logo
ARH - Airport
Location
City:  Arkhangelsk, Russian Federation (Russia)
Name:Talagi
ICAO / IATA:ULAA / ARH

Details
Type:Airport (Aerodrome, Airfield)
Use:Public/Civil
Latitude:6436'01"N (64.600281)
Longitude:4043'00"E (40.716667)
Datum:WGS 1984
Elevation:62 ft (19 m)
Variation:16.50E (WMM2015 magnetic declination)
0.16 annual change
Runways:1
Longest:8202 × 144 ft (2500 × 44 m), paved

Time
Time Zone:UTC+3 (DST+4)

Weather
METAR:ULAA 301330Z 20004G08MPS 140V270 9999 OVC030 01/M04 Q1007 26950350 NOSIG RMK QFE754/1005
TAF:ULAA 301100Z 3012/3112 18006G14MPS 9999 BKN010CB 530003
TEMPO 3012/3109 2000 SHSN BLSN BKN005 BKN010CB 650050

Related Locations
Nearby:
Farthest:NZWD: 11008 mi / 17716 km
McMurdo Station [Williams Field], Ross Island, AQ

Find:

   beyond  
but within

Other Information
Maps:
NOTAMs:
Links:
Sources:

  
flag of Russian Federation (Russia)   

Sectional Chart

Flight Planning
at skyvector.com

Satellite Image

Google Maps Satellite View

 

Copyright © 2004-2015 Karl L. Swartz. All rights reserved.
The Great Circle Mapper name and logo are trademarks of the Great Circle Mapper.
All other trademarks mentioned herein belong to their respective owners.
Please see credits for attibutions and further copyright information.

  Follow gcmap on Facebook Follow gcmap on Twitter Follow gcmap on Google+

hCard Microformat

Geo Microformat